GM4ZUK-13 Weather Reports


time (UTC)temp
F
wind
direction
speed
knots
gust
knots
rain 1hr
in
rain 24hr
in
rain mn
in
humidity
%
barometer
mb
20260506094258 51 337 0.0 1.7 0.00 0.00 0.00 61 1024.5
20260506093357 50 337 0.0 3.5 0.00 0.00 0.00 60 1024.7
20260506092457 50 337 0.0 1.7 0.00 0.00 0.00 56 1024.8
20260506091557 51 337 0.0 3.5 0.00 0.00 0.00 56 1024.7
20260506090911 49 337 0.0 3.5 0.00 0.00 0.00 55 1024.8
20260506085758 50 337 0.9 1.7 0.00 0.00 0.00 56 1025.0
20260506084857 49 0 0.0 0.0 0.00 0.00 0.00 58 1024.8
20260506083958 50 0 0.0 0.0 0.00 0.00 0.00 63 1025.0
20260506083059 49 0 0.0 0.0 0.00 0.00 0.00 63 1025.1
20260506082158 47 0 0.0 0.0 0.00 0.00 0.00 66 1025.1
20260506081257 47 0 0.0 0.0 0.00 0.00 0.00 70 1025.1
20260506080357 46 0 0.0 0.0 0.00 0.00 0.00 71 1025.1
20260506073011 43 0 0.0 0.0 0.00 0.01 0.00 75 1025.6
20260506071857 42 0 0.0 0.0 0.00 0.01 0.00 79 1025.5
20260506070959 41 0 0.0 0.0 0.00 0.01 0.00 82 1025.5
20260506070308 40 0 0.0 0.0 0.00 0.01 0.00 87 1025.5
20260506062457 35 360 0.0 1.7 0.00 0.02 0.00 96 1025.6
20260506061810 35 360 0.0 1.7 0.00 0.02 0.00 96 1025.7
20260506060657 34 0 0.0 0.0 0.00 0.02 0.00 97 1025.7
20260506051257 28 0 0.0 0.0 0.00 0.02 0.00 98 1025.8
20260506050357 28 0 0.0 0.0 0.00 0.02 0.00 97 1025.9
20260506044558 27 0 0.0 0.0 0.00 0.02 0.00 97 1025.8
20260506043659 28 0 0.0 0.0 0.00 0.02 0.00 97 1025.9
20260506042757 28 0 0.0 0.0 0.00 0.02 0.00 97 1025.7
20260506041857 27 0 0.0 0.0 0.00 0.02 0.00 97 1025.9
20260506040958 28 0 0.0 0.0 0.00 0.02 0.00 97 1025.6
20260506040057 28 0 0.0 0.0 0.00 0.02 0.00 97 1025.9
20260506035157 28 0 0.0 0.0 0.00 0.02 0.00 97 1025.7
20260506034258 28 0 0.0 0.0 0.00 0.02 0.00 97 1026.0
20260506033359 28 0 0.0 0.0 0.00 0.02 0.00 97 1026.1
20260506032457 28 0 0.0 0.0 0.00 0.02 0.00 97 1025.7
20260506031807 28 0 0.0 0.0 0.00 0.02 0.00 97 1025.9
20260506030657 28 0 0.0 0.0 0.00 0.02 0.00 97 1025.8
20260506025757 27 0 0.0 0.0 0.00 0.02 0.00 97 1025.8
20260506024858 28 0 0.0 0.0 0.00 0.02 0.00 96 1025.9
20260506023958 29 0 0.0 0.0 0.00 0.02 0.00 97 1026.0
20260506023057 29 0 0.0 0.0 0.00 0.02 0.00 96 1025.8
20260506022158 28 360 0.0 1.7 0.00 0.02 0.00 96 1025.7
20260506021259 29 360 0.0 1.7 0.00 0.02 0.00 96 1025.9
20260506020359 28 360 0.0 1.7 0.00 0.02 0.00 96 1026.0
20260506014553 29 0 0.0 0.0 0.00 0.02 0.00 96 1025.8
20260506013653 29 0 0.0 0.0 0.00 0.02 0.00 95 1026.1
20260506012754 29 0 0.0 0.0 0.00 0.02 0.00 95 1025.9
20260506011854 30 0 0.0 0.0 0.00 0.02 0.00 95 1026.0
20260506010953 29 0 0.0 0.0 0.00 0.02 0.00 95 1026.2
20260506010054 30 0 0.0 0.0 0.00 0.02 0.00 95 1026.0
20260506005406 30 0 0.0 0.0 0.00 0.02 0.00 95 1026.0
20260506004254 29 0 0.0 0.0 0.00 0.02 0.00 95 1026.1
20260506003353 30 0 0.0 0.0 0.00 0.02 0.00 95 1026.2
20260506002456 29 0 0.0 0.0 0.00 0.02 0.00 95 1026.1
20260506001553 30 0 0.0 0.0 0.00 0.02 0.00 94 1026.1
20260506000654 31 0 0.0 0.0 0.00 0.02 0.00 94 1026.2
20260505235754 30 0 0.0 0.0 0.00 0.02 0.00 94 1026.1
20260505234854 30 0 0.0 0.0 0.00 0.02 0.00 93 1026.2
20260505233953 31 0 0.0 0.0 0.00 0.02 0.00 94 1026.3
20260505233054 31 0 0.0 0.0 0.00 0.02 0.00 93 1026.4
20260505232405 31 0 0.0 0.0 0.00 0.02 0.00 93 1026.4
20260505231254 31 0 0.0 0.0 0.00 0.02 0.00 92 1026.3
20260505230353 31 0 0.0 0.0 0.00 0.02 0.00 92 1026.5
20260505225454 31 0 0.0 0.0 0.00 0.02 0.02 91 1026.2
20260505224553 32 0 0.0 0.0 0.00 0.02 0.02 91 1026.3
20260505223907 32 0 0.0 0.0 0.00 0.02 0.02 91 1026.3
20260505222755 32 360 0.0 1.7 0.00 0.02 0.02 90 1026.4
20260505221854 33 0 0.0 0.0 0.00 0.02 0.02 90 1026.4
20260505220953 33 0 0.0 0.0 0.00 0.02 0.02 90 1026.4
20260505220306 33 0 0.0 0.0 0.00 0.02 0.02 89 1026.3
20260505215154 33 0 0.0 0.0 0.00 0.02 0.02 88 1026.3
20260505214253 33 0 0.0 0.0 0.00 0.02 0.02 87 1026.4
20260505213354 34 0 0.0 0.0 0.00 0.02 0.02 86 1026.2
20260505212453 35 0 0.0 0.0 0.00 0.02 0.02 85 1026.2
20260505211808 35 0 0.0 0.0 0.00 0.04 0.02 84 1026.3
20260505210653 35 0 0.0 0.0 0.00 0.04 0.02 81 1026.3
20260505205753 36 0 0.0 0.0 0.00 0.04 0.02 80 1026.1
20260505204853 37 0 0.0 0.0 0.00 0.05 0.02 80 1026.4
20260505203953 38 0 0.0 0.0 0.00 0.05 0.02 79 1026.3
20260505203054 39 360 0.0 1.7 0.00 0.05 0.02 77 1026.1
20260505202153 41 360 0.9 1.7 0.00 0.05 0.02 73 1025.9
20260505201504 41 360 0.0 1.7 0.00 0.05 0.02 69 1026.1
20260505200355 42 360 0.0 3.5 0.00 0.05 0.02 67 1025.9
20260505195454 43 353 0.0 3.5 0.00 0.05 0.02 64 1026.1
20260505194555 43 340 1.7 3.5 0.00 0.05 0.02 64 1025.9
20260505193655 43 359 1.7 3.5 0.00 0.05 0.02 63 1026.0
20260505192754 44 360 1.7 3.5 0.00 0.05 0.02 65 1025.9
20260505191855 44 19 1.7 5.2 0.00 0.05 0.02 64 1025.7
20260505191206 44 9 1.7 5.2 0.00 0.05 0.02 63 1025.6
20260505190054 45 359 0.9 5.2 0.00 0.05 0.02 59 1025.6
20260505185153 45 359 2.6 5.2 0.00 0.05 0.02 56 1025.5
20260505184253 46 355 1.7 7.0 0.00 0.05 0.02 57 1025.4
20260505183354 46 356 3.5 9.6 0.00 0.05 0.02 56 1025.5
20260505182453 46 6 6.1 9.6 0.00 0.05 0.02 53 1025.5
20260505181554 47 347 1.7 7.0 0.00 0.05 0.02 54 1025.6
20260505180655 46 345 3.5 7.0 0.00 0.05 0.02 54 1025.4
20260505175753 47 352 3.5 11.3 0.00 0.05 0.02 54 1025.5
20260505174853 47 1 1.7 9.6 0.00 0.05 0.02 52 1025.4
20260505173953 47 5 3.5 7.0 0.00 0.05 0.02 52 1025.4
20260505173054 47 3 1.7 7.8 0.00 0.05 0.02 51 1025.6
20260505172153 48 350 3.5 6.1 0.00 0.05 0.02 46 1025.7
20260505171253 48 342 1.7 9.6 0.00 0.05 0.02 46 1025.5
20260505170355 48 355 2.6 13.0 0.00 0.05 0.02 44 1025.3
20260505165458 48 348 4.3 12.2 0.00 0.05 0.02 44 1025.4
20260505164558 49 5 4.3 9.6 0.00 0.05 0.02 44 1025.4
20260505163905 48 349 3.5 11.3 0.00 0.05 0.02 47 1025.2
20260505162754 48 343 3.5 9.6 0.00 0.05 0.02 45 1025.2
20260505161853 48 354 4.3 7.0 0.00 0.05 0.02 47 1025.3
20260505160953 48 337 3.5 9.6 0.00 0.05 0.02 46 1025.4
20260505153353 48 352 3.5 7.0 0.00 0.05 0.02 55 1025.4
20260505152704 48 11 1.7 9.6 0.00 0.05 0.02 58 1025.4
20260505151553 48 358 1.7 9.6 0.00 0.05 0.02 57 1025.3
20260505150653 48 356 2.6 9.6 0.00 0.05 0.02 57 1025.5
20260505140353 49 345 4.3 7.0 0.00 0.05 0.02 62 1025.1
20260505124253 47 344 1.7 11.3 0.00 0.05 0.02 62 1025.3
20260505123354 48 357 3.5 11.3 0.00 0.05 0.02 62 1025.2
20260505122454 47 11 3.5 9.6 0.00 0.05 0.02 64 1025.2
20260505121553 47 355 2.6 9.6 0.00 0.05 0.02 67 1025.0
20260505120653 47 356 6.1 18.2 0.00 0.05 0.02 65 1025.1
20260505115753 47 335 1.7 7.0 0.00 0.05 0.02 67 1024.8
20260505115105 47 360 1.7 7.8 0.00 0.05 0.02 67 1024.8
20260505114202 48 358 1.7 9.6 0.00 0.05 0.02 68 1025.0
20260505113053 48 342 3.5 13.0 0.00 0.05 0.02 68 1024.8
20260505112153 47 355 2.6 9.6 0.00 0.05 0.02 73 1024.9
20260505111253 45 350 4.3 11.3 0.00 0.05 0.02 73 1024.8
20260505110354 46 343 5.2 11.3 0.00 0.05 0.02 74 1025.0
20260505101853 45 339 3.5 13.0 0.00 0.05 0.02 76 1024.6
20260505100954 46 2 4.3 9.6 0.00 0.05 0.02 74 1024.5
20260505100055 46 358 1.7 7.0 0.00 0.05 0.02 75 1024.6
20260505095154 45 9 2.6 9.6 0.00 0.05 0.02 77 1024.5